| time (UTC) | temp C | wind direction | speed KPH | gust KPH | rain 1hr cm | rain 24hr cm | rain mn cm | humidity % | barometer mb |
| 20260504030623 | 2 | 215 | 0.0 | 0.0 | 0.00 | 0.00 | 0.00 | 84 | 1012.8 |
| 20260504030119 | 2 | 176 | 1.6 | 1.6 | 0.00 | 0.00 | 0.00 | 84 | 1012.8 |
| 20260504025616 | 3 | 299 | 0.0 | 0.0 | 0.00 | 0.00 | 0.00 | 83 | 1012.7 |
| 20260504025113 | 3 | 258 | 0.0 | 1.6 | 0.00 | 0.00 | 0.00 | 83 | 1012.9 |
| 20260504024611 | 3 | 272 | 0.0 | 0.0 | 0.00 | 0.00 | 0.00 | 83 | 1012.8 |
| 20260504024107 | 3 | 326 | 1.6 | 1.6 | 0.00 | 0.00 | 0.00 | 81 | 1012.8 |
| 20260504023603 | 3 | 337 | 3.2 | 3.2 | 0.00 | 0.00 | 0.00 | 79 | 1012.6 |
| 20260504023059 | 3 | 279 | 0.0 | 1.6 | 0.00 | 0.00 | 0.00 | 79 | 1012.6 |
| 20260504022556 | 3 | 261 | 0.0 | 0.0 | 0.00 | 0.00 | 0.00 | 79 | 1012.9 |
| 20260504022052 | 4 | 278 | 1.6 | 1.6 | 0.00 | 0.00 | 0.00 | 77 | 1012.6 |
| 20260504021550 | 4 | 318 | 1.6 | 1.6 | 0.00 | 0.00 | 0.00 | 78 | 1012.7 |
| 20260504021046 | 4 | 35 | 1.6 | 1.6 | 0.00 | 0.00 | 0.00 | 77 | 1012.8 |
| 20260504020543 | 5 | 29 | 0.0 | 0.0 | 0.00 | 0.00 | 0.00 | 75 | 1012.4 |
| 20260504020040 | 5 | 294 | 1.6 | 1.6 | 0.00 | 0.00 | 0.00 | 75 | 1012.6 |
| 20260504015536 | 5 | 1 | 0.0 | 1.6 | 0.00 | 0.00 | 0.00 | 74 | 1012.5 |
| 20260504015032 | 5 | 22 | 0.0 | 0.0 | 0.00 | 0.00 | 0.00 | 75 | 1012.7 |
| 20260504014528 | 5 | 345 | 0.0 | 0.0 | 0.00 | 0.00 | 0.00 | 73 | 1012.5 |
| 20260504014026 | 5 | 333 | 1.6 | 1.6 | 0.00 | 0.00 | 0.00 | 73 | 1012.3 |
| 20260504013524 | 5 | 343 | 1.6 | 3.2 | 0.00 | 0.00 | 0.00 | 72 | 1012.5 |
| 20260504013020 | 5 | 303 | 0.0 | 0.0 | 0.00 | 0.00 | 0.00 | 69 | 1012.3 |
| 20260504012518 | 6 | 325 | 1.6 | 1.6 | 0.00 | 0.00 | 0.00 | 68 | 1012.3 |
| 20260504012016 | 6 | 326 | 1.6 | 1.6 | 0.00 | 0.00 | 0.00 | 69 | 1012.3 |
| 20260504011512 | 6 | 319 | 1.6 | 1.6 | 0.00 | 0.00 | 0.00 | 68 | 1012.4 |
| 20260504011008 | 6 | 328 | 3.2 | 3.2 | 0.00 | 0.00 | 0.00 | 68 | 1012.2 |
| 20260504010504 | 7 | 302 | 1.6 | 1.6 | 0.00 | 0.00 | 0.00 | 64 | 1012.1 |
| 20260504010000 | 7 | 318 | 1.6 | 3.2 | 0.00 | 0.00 | 0.00 | 63 | 1012.1 |
| 20260504005457 | 7 | 254 | 0.0 | 1.6 | 0.00 | 0.00 | 0.00 | 63 | 1012.2 |
| 20260504004954 | 8 | 297 | 1.6 | 1.6 | 0.00 | 0.00 | 0.00 | 62 | 1012.3 |
| 20260504004452 | 8 | 341 | 1.6 | 3.2 | 0.00 | 0.00 | 0.00 | 57 | 1012.1 |
| 20260504003949 | 9 | 55 | 1.6 | 1.6 | 0.00 | 0.00 | 0.00 | 52 | 1012.0 |
| 20260504003445 | 10 | 122 | 0.0 | 1.6 | 0.00 | 0.00 | 0.00 | 56 | 1012.3 |
| 20260504002942 | 10 | 179 | 4.8 | 4.8 | 0.00 | 0.00 | 0.00 | 45 | 1012.1 |
| 20260504002439 | 11 | 176 | 1.6 | 3.2 | 0.00 | 0.00 | 0.00 | 45 | 1012.1 |
| 20260504001936 | 11 | 125 | 9.7 | 12.9 | 0.00 | 0.00 | 0.00 | 44 | 1012.1 |
| 20260504001433 | 11 | 113 | 6.4 | 9.7 | 0.00 | 0.00 | 0.00 | 44 | 1012.0 |
| 20260504000930 | 11 | 131 | 8.0 | 11.3 | 0.00 | 0.00 | 0.00 | 44 | 1012.2 |
| 20260504000427 | 11 | 189 | 4.8 | 4.8 | 0.00 | 0.00 | 0.00 | 43 | 1012.2 |
| 20260503235924 | 11 | 120 | 3.2 | 9.7 | 0.00 | 0.00 | 0.00 | 44 | 1012.1 |
| 20260503235422 | 11 | 173 | 11.3 | 14.5 | 0.00 | 0.00 | 0.00 | 45 | 1011.9 |
| 20260503234919 | 11 | 184 | 8.0 | 11.3 | 0.00 | 0.00 | 0.00 | 42 | 1011.9 |
| 20260503234417 | 11 | 197 | 4.8 | 8.0 | 0.00 | 0.00 | 0.00 | 42 | 1012.1 |
| 20260503233914 | 11 | 356 | 3.2 | 3.2 | 0.00 | 0.00 | 0.00 | 44 | 1012.2 |
| 20260503233411 | 11 | 212 | 9.7 | 11.3 | 0.00 | 0.00 | 0.00 | 42 | 1012.2 |
| 20260503232907 | 12 | 199 | 8.0 | 11.3 | 0.00 | 0.00 | 0.00 | 42 | 1012.0 |
| 20260503232405 | 11 | 57 | 12.9 | 14.5 | 0.00 | 0.00 | 0.00 | 42 | 1011.9 |
| 20260503231902 | 11 | 221 | 8.0 | 9.7 | 0.00 | 0.00 | 0.00 | 42 | 1012.1 |
| 20260503231359 | 11 | 102 | 3.2 | 4.8 | 0.00 | 0.00 | 0.00 | 43 | 1012.2 |
| 20260503230855 | 11 | 60 | 4.8 | 4.8 | 0.00 | 0.00 | 0.00 | 43 | 1012.0 |
| 20260503230352 | 11 | 154 | 6.4 | 9.7 | 0.00 | 0.00 | 0.00 | 43 | 1011.9 |
| 20260503225850 | 12 | 34 | 4.8 | 4.8 | 0.00 | 0.00 | 0.00 | 42 | 1012.1 |
| 20260503225345 | 12 | 217 | 11.3 | 16.1 | 0.00 | 0.00 | 0.00 | 42 | 1012.2 |
| 20260503224842 | 12 | 287 | 0.0 | 1.6 | 0.00 | 0.00 | 0.00 | 44 | 1012.2 |
| 20260503224339 | 12 | 197 | 1.6 | 3.2 | 0.00 | 0.00 | 0.00 | 42 | 1011.9 |
| 20260503223837 | 12 | 353 | 3.2 | 4.8 | 0.00 | 0.00 | 0.00 | 41 | 1012.0 |
| 20260503223334 | 12 | 87 | 4.8 | 8.0 | 0.00 | 0.00 | 0.00 | 41 | 1011.9 |
| 20260503222830 | 12 | 178 | 1.6 | 1.6 | 0.00 | 0.00 | 0.00 | 41 | 1011.9 |
| 20260503222329 | 12 | 346 | 6.4 | 9.7 | 0.00 | 0.00 | 0.00 | 40 | 1011.9 |
| 20260503221826 | 12 | 293 | 3.2 | 3.2 | 0.00 | 0.00 | 0.00 | 40 | 1012.0 |
| 20260503221325 | 12 | 161 | 1.6 | 1.6 | 0.00 | 0.00 | 0.00 | 40 | 1012.2 |
| 20260503220820 | 12 | 232 | 6.4 | 11.3 | 0.00 | 0.00 | 0.00 | 40 | 1012.1 |
| 20260503220318 | 12 | 188 | 9.7 | 11.3 | 0.00 | 0.00 | 0.00 | 41 | 1012.0 |
| 20260503215814 | 12 | 288 | 6.4 | 12.9 | 0.00 | 0.00 | 0.00 | 42 | 1012.1 |
| 20260503215312 | 12 | 169 | 9.7 | 20.9 | 0.00 | 0.00 | 0.00 | 41 | 1012.1 |
| 20260503214809 | 12 | 147 | 8.0 | 9.7 | 0.00 | 0.00 | 0.00 | 40 | 1012.0 |
| 20260503214306 | 13 | 199 | 16.1 | 22.5 | 0.00 | 0.00 | 0.00 | 41 | 1011.9 |
| 20260503213804 | 13 | 187 | 3.2 | 3.2 | 0.00 | 0.00 | 0.00 | 40 | 1012.1 |
| 20260503213301 | 12 | 2 | 4.8 | 4.8 | 0.00 | 0.00 | 0.00 | 39 | 1012.0 |
| 20260503212758 | 12 | 172 | 4.8 | 4.8 | 0.00 | 0.00 | 0.00 | 40 | 1012.0 |
| 20260503212256 | 12 | 165 | 3.2 | 3.2 | 0.00 | 0.00 | 0.00 | 39 | 1012.0 |
| 20260503211753 | 12 | 348 | 4.8 | 4.8 | 0.00 | 0.00 | 0.00 | 42 | 1012.1 |
| 20260503211249 | 12 | 330 | 8.0 | 11.3 | 0.00 | 0.00 | 0.00 | 40 | 1012.1 |
| 20260503210744 | 12 | 140 | 9.7 | 17.7 | 0.00 | 0.00 | 0.00 | 43 | 1011.9 |
| 20260503210242 | 12 | 189 | 3.2 | 4.8 | 0.00 | 0.00 | 0.00 | 40 | 1011.9 |
| 20260503205742 | 12 | 157 | 4.8 | 4.8 | 0.00 | 0.00 | 0.00 | 40 | 1011.9 |
| 20260503205239 | 12 | 198 | 4.8 | 8.0 | 0.00 | 0.00 | 0.00 | 42 | 1012.0 |
| 20260503204735 | 12 | 213 | 4.8 | 8.0 | 0.00 | 0.00 | 0.00 | 40 | 1012.2 |
| 20260503204233 | 12 | 275 | 9.7 | 12.9 | 0.00 | 0.00 | 0.00 | 39 | 1012.2 |
| 20260503203730 | 12 | 136 | 4.8 | 4.8 | 0.00 | 0.00 | 0.00 | 42 | 1012.0 |
| 20260503203228 | 11 | 351 | 3.2 | 4.8 | 0.00 | 0.00 | 0.00 | 42 | 1012.3 |
| 20260503202725 | 12 | 151 | 4.8 | 8.0 | 0.00 | 0.00 | 0.00 | 41 | 1012.3 |
| 20260503202223 | 12 | 234 | 14.5 | 16.1 | 0.00 | 0.00 | 0.00 | 40 | 1012.2 |
| 20260503201720 | 11 | 140 | 4.8 | 8.0 | 0.00 | 0.00 | 0.00 | 41 | 1012.4 |
| 20260503201218 | 12 | 141 | 4.8 | 8.0 | 0.00 | 0.00 | 0.00 | 40 | 1012.4 |
| 20260503200714 | 12 | 16 | 4.8 | 8.0 | 0.00 | 0.00 | 0.00 | 40 | 1012.2 |
| 20260503200210 | 12 | 36 | 4.8 | 4.8 | 0.00 | 0.00 | 0.00 | 40 | 1012.4 |
| 20260503195707 | 12 | 226 | 4.8 | 8.0 | 0.00 | 0.00 | 0.00 | 41 | 1012.4 |
| 20260503195204 | 12 | 338 | 3.2 | 9.7 | 0.00 | 0.00 | 0.00 | 39 | 1012.6 |
| 20260503194701 | 12 | 14 | 1.6 | 3.2 | 0.00 | 0.00 | 0.00 | 41 | 1012.5 |
| 20260503194156 | 12 | 174 | 8.0 | 11.3 | 0.00 | 0.00 | 0.00 | 40 | 1012.3 |
| 20260503193653 | 12 | 144 | 3.2 | 8.0 | 0.00 | 0.00 | 0.00 | 40 | 1012.8 |
| 20260503193149 | 12 | 343 | 4.8 | 9.7 | 0.00 | 0.00 | 0.00 | 40 | 1012.7 |
| 20260503192645 | 12 | 86 | 8.0 | 11.3 | 0.00 | 0.00 | 0.00 | 39 | 1012.8 |
| 20260503192141 | 12 | 186 | 6.4 | 8.0 | 0.00 | 0.00 | 0.00 | 41 | 1013.1 |
| 20260503191638 | 12 | 184 | 11.3 | 12.9 | 0.00 | 0.00 | 0.00 | 40 | 1013.1 |
| 20260503191135 | 12 | 111 | 4.8 | 8.0 | 0.00 | 0.00 | 0.00 | 41 | 1013.2 |
| 20260503190631 | 12 | 195 | 9.7 | 12.9 | 0.00 | 0.00 | 0.00 | 44 | 1013.1 |
| 20260503190128 | 12 | 183 | 4.8 | 11.3 | 0.00 | 0.00 | 0.00 | 40 | 1013.2 |
| 20260503185625 | 12 | 176 | 4.8 | 8.0 | 0.00 | 0.00 | 0.00 | 42 | 1013.3 |
| 20260503185120 | 12 | 82 | 4.8 | 4.8 | 0.00 | 0.00 | 0.00 | 42 | 1013.2 |
| 20260503184615 | 11 | 87 | 8.0 | 11.3 | 0.00 | 0.00 | 0.00 | 40 | 1013.3 |
| 20260503184112 | 11 | 186 | 12.9 | 16.1 | 0.00 | 0.00 | 0.00 | 41 | 1013.5 |
| 20260503183609 | 11 | 143 | 4.8 | 8.0 | 0.00 | 0.00 | 0.00 | 40 | 1013.5 |
| 20260503183106 | 11 | 109 | 4.8 | 4.8 | 0.00 | 0.00 | 0.00 | 44 | 1013.5 |
| 20260503182605 | 11 | 300 | 12.9 | 12.9 | 0.00 | 0.00 | 0.00 | 41 | 1013.7 |
| 20260503182102 | 11 | 113 | 4.8 | 4.8 | 0.00 | 0.00 | 0.00 | 42 | 1013.6 |
| 20260503181559 | 11 | 357 | 14.5 | 16.1 | 0.00 | 0.00 | 0.00 | 40 | 1013.8 |
| 20260503181055 | 11 | 32 | 4.8 | 8.0 | 0.00 | 0.00 | 0.00 | 41 | 1013.7 |
| 20260503180553 | 11 | 354 | 8.0 | 9.7 | 0.00 | 0.00 | 0.00 | 40 | 1013.5 |
| 20260503180050 | 11 | 164 | 1.6 | 3.2 | 0.00 | 0.00 | 0.00 | 40 | 1013.7 |
| 20260503175547 | 11 | 20 | 11.3 | 14.5 | 0.00 | 0.00 | 0.00 | 39 | 1013.7 |
| 20260503175044 | 12 | 4 | 3.2 | 4.8 | 0.00 | 0.00 | 0.00 | 39 | 1013.8 |
| 20260503174541 | 11 | 189 | 6.4 | 8.0 | 0.00 | 0.00 | 0.00 | 39 | 1013.7 |
| 20260503174038 | 11 | 214 | 17.7 | 25.7 | 0.00 | 0.00 | 0.00 | 42 | 1013.9 |
| 20260503173533 | 11 | 137 | 1.6 | 3.2 | 0.00 | 0.00 | 0.00 | 43 | 1013.9 |
| 20260503173029 | 11 | 18 | 8.0 | 11.3 | 0.00 | 0.00 | 0.00 | 39 | 1014.1 |
| 20260503172521 | 12 | 180 | 8.0 | 11.3 | 0.00 | 0.00 | 0.00 | 38 | 1013.9 |
| 20260503172018 | 10 | 289 | 9.7 | 14.5 | 0.00 | 0.00 | 0.00 | 41 | 1013.8 |
| 20260503171515 | 10 | 282 | 11.3 | 12.9 | 0.00 | 0.00 | 0.00 | 39 | 1013.9 |
| 20260503171012 | 11 | 353 | 12.9 | 14.5 | 0.00 | 0.00 | 0.00 | 43 | 1013.9 |
| 20260503170508 | 10 | 189 | 9.7 | 11.3 | 0.00 | 0.00 | 0.00 | 42 | 1014.0 |
| 20260503150900 | 8 | 299 | 8.0 | 11.3 | 0.00 | 0.00 | 0.00 | 46 | 1014.8 |
| 20260503150357 | 8 | 271 | 4.8 | 8.0 | 0.00 | 0.00 | 0.00 | 49 | 1014.9 |
| 20260503131250 | 5 | 111 | 3.2 | 3.2 | 0.00 | 0.00 | 0.00 | 64 | 1015.3 |
| 20260503130748 | 5 | 353 | 8.0 | 11.3 | 0.00 | 0.00 | 0.00 | 66 | 1015.5 |
| 20260503130246 | 5 | 305 | 4.8 | 8.0 | 0.00 | 0.00 | 0.00 | 67 | 1015.6 |
| 20260503120211 | 0 | 181 | 3.2 | 3.2 | 0.00 | 0.00 | 0.00 | 90 | 1015.6 |
| 20260503110638 | -3 | 205 | 0.0 | 0.0 | 0.00 | 0.00 | 0.00 | 98 | 1015.3 |
| 20260503110136 | -3 | 207 | 0.0 | 0.0 | 0.00 | 0.00 | 0.00 | 98 | 1015.0 |
| 20260503081446 | -2 | 251 | 0.0 | 0.0 | 0.00 | 0.00 | 0.00 | 95 | 1014.4 |
| 20260503080943 | -2 | 245 | 0.0 | 0.0 | 0.00 | 0.00 | 0.00 | 95 | 1014.5 |
| 20260503080439 | -2 | 276 | 0.0 | 1.6 | 0.00 | 0.00 | 0.00 | 95 | 1014.5 |
| 20260503072916 | -1 | 269 | 0.0 | 1.6 | 0.00 | 0.00 | 0.00 | 93 | 1014.3 |
| 20260503072413 | -1 | 285 | 0.0 | 1.6 | 0.00 | 0.00 | 0.00 | 93 | 1014.0 |
| 20260503071910 | -1 | 330 | 1.6 | 1.6 | 0.00 | 0.00 | 0.00 | 92 | 1014.2 |
| 20260503071407 | -1 | 264 | 0.0 | 0.0 | 0.00 | 0.00 | 0.00 | 92 | 1013.9 |
| 20260503070903 | -1 | 267 | 1.6 | 1.6 | 0.00 | 0.00 | 0.00 | 91 | 1013.9 |
| 20260503070400 | -1 | 24 | 1.6 | 1.6 | 0.00 | 0.00 | 0.00 | 90 | 1014.0 |
| 20260503060326 | 0 | 242 | 0.0 | 0.0 | 0.00 | 0.00 | 0.00 | 85 | 1014.2 |
| 20260503054814 | 0 | 222 | 0.0 | 0.0 | 0.00 | 0.00 | 0.00 | 84 | 1014.3 |
| 20260503054310 | 0 | 221 | 0.0 | 0.0 | 0.00 | 0.00 | 0.00 | 83 | 1014.3 |
| 20260503053808 | 0 | 239 | 0.0 | 0.0 | 0.00 | 0.00 | 0.00 | 83 | 1014.3 |
| 20260503053306 | 0 | 200 | 0.0 | 0.0 | 0.00 | 0.00 | 0.00 | 83 | 1014.2 |
| 20260503052802 | 0 | 202 | 0.0 | 0.0 | 0.00 | 0.00 | 0.00 | 82 | 1014.3 |
| 20260503052259 | 0 | 220 | 0.0 | 0.0 | 0.00 | 0.00 | 0.00 | 81 | 1014.2 |
| 20260503051755 | 0 | 220 | 0.0 | 0.0 | 0.00 | 0.00 | 0.00 | 80 | 1014.4 |
| 20260503051252 | 0 | 238 | 0.0 | 0.0 | 0.00 | 0.00 | 0.00 | 79 | 1014.5 |
| 20260503050748 | 0 | 261 | 0.0 | 0.0 | 0.00 | 0.00 | 0.00 | 78 | 1014.4 |
| 20260503050245 | 0 | 234 | 0.0 | 0.0 | 0.00 | 0.00 | 0.00 | 78 | 1014.6 |
| 20260503045742 | 1 | 242 | 0.0 | 0.0 | 0.00 | 0.00 | 0.00 | 77 | 1014.5 |
| 20260503045234 | 1 | 300 | 1.6 | 1.6 | 0.00 | 0.00 | 0.00 | 77 | 1014.7 |
| 20260503044730 | 1 | 297 | 1.6 | 1.6 | 0.00 | 0.00 | 0.00 | 77 | 1014.8 |
| 20260503044227 | 1 | 231 | 0.0 | 0.0 | 0.00 | 0.00 | 0.00 | 76 | 1014.7 |
| 20260503043724 | 1 | 241 | 0.0 | 0.0 | 0.00 | 0.00 | 0.00 | 76 | 1014.8 |
| 20260503043222 | 1 | 201 | 0.0 | 0.0 | 0.00 | 0.00 | 0.00 | 76 | 1014.8 |
| 20260503042717 | 1 | 236 | 0.0 | 0.0 | 0.00 | 0.00 | 0.00 | 75 | 1014.7 |
| 20260503042214 | 1 | 229 | 0.0 | 0.0 | 0.00 | 0.00 | 0.00 | 75 | 1014.6 |
| 20260503041710 | 1 | 7 | 1.6 | 1.6 | 0.00 | 0.00 | 0.00 | 74 | 1014.7 |
| 20260503041208 | 1 | 251 | 0.0 | 0.0 | 0.00 | 0.00 | 0.00 | 75 | 1014.9 |
| 20260503040705 | 1 | 247 | 0.0 | 1.6 | 0.00 | 0.00 | 0.00 | 76 | 1014.8 |
| 20260503040203 | 1 | 273 | 1.6 | 1.6 | 0.00 | 0.00 | 0.00 | 75 | 1014.7 |
| 20260503035659 | 1 | 349 | 1.6 | 1.6 | 0.00 | 0.00 | 0.00 | 75 | 1014.7 |
| 20260503035157 | 1 | 214 | 0.0 | 1.6 | 0.00 | 0.00 | 0.00 | 77 | 1014.7 |
| 20260503034654 | 1 | 228 | 0.0 | 0.0 | 0.00 | 0.00 | 0.00 | 77 | 1014.9 |
| 20260503034151 | 1 | 187 | 0.0 | 0.0 | 0.00 | 0.00 | 0.00 | 77 | 1014.8 |
| 20260503033648 | 1 | 202 | 0.0 | 0.0 | 0.00 | 0.00 | 0.00 | 77 | 1014.8 |
| 20260503033146 | 1 | 250 | 0.0 | 1.6 | 0.00 | 0.00 | 0.00 | 78 | 1014.8 |
| 20260503032644 | 1 | 335 | 1.6 | 3.2 | 0.00 | 0.00 | 0.00 | 76 | 1014.9 |
| 20260503032143 | 1 | 240 | 0.0 | 0.0 | 0.00 | 0.00 | 0.00 | 79 | 1014.9 |
| 20260503031639 | 1 | 160 | 0.0 | 1.6 | 0.00 | 0.00 | 0.00 | 77 | 1014.7 |
| 20260503031137 | 1 | 206 | 0.0 | 0.0 | 0.00 | 0.00 | 0.00 | 76 | 1014.9 |